SCP
0 0 0 0 0 0 0 0 0 0 0 0 0 0 0 0 0 0 0 0 0 0 0 0 0 0 0 0 0 0 0 0 0 0 0 0 0 0 0 0 0 0 0 0
0 0 0 0 0 0 0 0 0 0 0 0 0 0 0 0 0 0 0 0 0 0 0 0 0 0 0 0 0 0 0 0 0 0 0 0 0 0 0 0 0 0 0 0
0 0 0 0 0 0 0 0 0 0 0 0 0 0 0 0 0 0 0 0 0 0 0 0 0 0 0 0 0 0 0 0 0 0 0 0 0 0 0 0 0 0 0 0
0 0 0 0 0 0 0 0 0 0 0 0 0 0 0 0 0 0 0 0 0 0 0 0 0 0 0 0 0 0 0 0 0 0 0 0 0 0 0 0 0 0 0 0
0 0 0 0 0 0 0 0 0 0 0 0 0 0 0 0 0 0 0 0 0 0 0 0 0 0 0 0 0 0 0 0 0 0 0 0 0 0 0 0 0 0 0 0
0 0 0 0 0 0 0 0 0 0 0 0 0 0 0 0 0 0 0 0 0 0 0 0 0 0 0 0 0 0 0 0 0 0 0 0 0 0 0 0 0 0 0 0
0 0 0 0 0 0 0 0 0 0 0 0 0 0 0 0 0 0 0 0 0 0 0 0 0 0 0 0 0 0 0 0 0 0 0 0 0 0 0 0 0 0 0 0
0 0 0 0 0 0 0 0 0 0 0 0 0 0 0 0 0 0 0 0 0 0 0 0 0 0 0 0 0 0 0 0 0 0 0 0 0 0 0 0 0 0 0 0
0 0 0 0 0 0 0 0 0 0 0 0 0 0 0 0 0 0 0 0 0 0 0 0 0 0 0 0 0 0 0 0 0 0 0 0 0 0 0 0 0 0 0 0
0 0 0 0 0 0 0 0 0 0 0 0 0 0 0 0 0 0 0 0 0 0 0 0 0 0 0 0 0 0 0 0 0 0 0 0 0 0 0 0 0 0 0 0
0 0 0 0 0 0 0 0 0 0 0 0 0 0 0 0 0 0 0 0 0 0 0 0 0 0 0 0 0 0 0 0 0 0 0 0 0 0 0 0 0 0 0 0
0 0 0 0 0 0 0 0 0 0 0 0 0 0 0 0 0 0 0 0 0 0 0 0 0 0 0 0 0 0 0 0 0 0 0 0 0 0 0 0 0 0 0 0
0 0 0 0 0 0 0 0 0 0 0 0 0 0 0 0 0 0 0 0 0 0 0 0 0 0 0 0 0 0 0 0 0 0 0 0 0 0 0 0 0 0 0 0
0 0 0 0 0 0 0 0 0 0 0 0 0 0 0 0 0 0 0 0 0 0 0 0 0 0 0 0 0 0 0 0 0 0 0 0 0 0 0 0 0 0 0 0
0 0 0 0 0 0 0 0 0 0 0 0 0 0 0 0 0 0 0 0 0 0 0 0 0 0 0 0 0 0 0 0 0 0 0 0 0 0 0 0 0 0 0 0
0 0 0 0 0 0 0 0 0 0 0 0 0 0 0 0 0 0 0 0 0 0 0 0 0 0 0 0 0 0 0 0 0 0 0 0 0 0 0 0 0 0 0 0
0 0 0 0 0 0 0 0 0 0 0 0 0 0 0 0 0 0 0 0 0 0 0 0 0 0 0 0 0 0 0 0 0 0 0 0 0 0 0 0 0 0 0 0
0 0 0 0 0 0 0 0 0 0 0 0 0 0 0 0 0 0 0 0 0 0 0 0 0 0 0 0 0 0 0 0 0 0 0 0 0 0 0 0 0 0 0 0
0 0 0 0 0 0 0 0 0 0 0 0 0 0 0 0 0 0 0 0 0 0 0 0 0 0 0 0 0 0 0 0 0 0 0 0 0 0 0 0 0 0 0 0
0 0 0 0 0 0 0 0 0 0 0 0 0 0 0 0 0 0 0 0 0 0 0 0 0 0 0 0 0 0 0 0 0 0 0 0 0 0 0 0 0 0 0 0
0 0 0 0 0 0 0 0 0 0 0 0 0 0 0 0 0 0 0 0 0 0 0 0 0 0 0 0 0 0 0 0 0 0 0 0 0 0 0 0 0 0 0 0
0 0 0 0 0 0 0 0 0 0 0 0 0 0 0 0 0 0 0 0 0 0 0 0 0 0 0 0 0 0 0 0 0 0 0 0 0 0 0 0 0 0 0 0
0 0 0 0 0 0 0 0 0 0 0 0 0 0 0 0 0 0 0 0 0 0 0 0 0 0 0 0 0 0 0 0 0 0 0 0 0 0 0 0 0 0 0 0
0 0 0 0 0 0 0 0 0 0 0 0 0 0 0 0 0 0 0 0 0 0 0 0 0 0 0 0 0 0 0 0 0 0 0 0 0 0 0 0 0 0 0 0
0 0 0 0 0 0 0 0 0 0 0 0 0 0 0 0 0 0 0 0 0 0 0 0 0 0 0 0 0 0 0 0 0 0 0 0 0 0 0 0 0 0 0 0
0 0 0 0 0 0 0 0 0 0 0 0 0 0 0 0 0 0 0 0 0 0 0 0 0 0 0 0 0 0 0 0 0 0 0 0 0 0 0 0 0 0 0 0
0 0 0 0 0 0 0 0 0 0 0 0 0 0 0 0 0 0 0 0 0 0 0 0 0 0 0 0 0 0 0 0 0 0 0 0 0 0 0 0 0 0 0 0
Wind_Speed_500mb
5 5 5 11 26 30 21 34 18 26 20 17 14 14 20 29 40 47 49 48 48 48 46 44 43 40 38 37 37 34 33 34 36 35 35 34 32 29 26 22 17 14 11 11
6 10 1 1 13 26 44 22 34 7 14 11 18 19 26 36 44 49 51 51 52 52 52 51 49 47 45 42 40 38 39 38 38 37 38 34 31 28 23 20 17 12 9 10
11 4 5 11 25 29 22 30 20 26 36 11 7 17 37 42 49 52 51 50 55 57 56 54 52 50 48 45 44 43 42 41 40 39 36 33 30 27 22 16 10 9 11 15
6 4 8 16 9 33 35 18 34 5 8 27 26 38 37 43 46 48 50 52 55 57 58 57 54 51 48 48 48 48 46 43 42 39 35 32 28 22 16 13 10 11 15 20
11 8 10 8 10 15 17 30 21 36 16 25 24 23 39 47 46 48 49 54 56 56 60 60 58 55 54 53 52 50 47 46 43 39 34 29 23 17 13 11 11 14 19 25
6 12 20 3 9 16 14 23 14 33 22 28 27 10 15 28 38 35 46 47 45 50 57 61 60 58 58 58 55 53 50 47 43 38 31 24 19 14 11 12 16 23 29 29
7 8 15 14 5 12 16 11 7 5 17 34 12 21 12 21 27 30 33 36 40 43 52 62 60 59 58 56 55 52 50 45 39 33 26 21 16 13 12 18 27 28 27 27
5 3 25 19 11 19 8 10 15 18 14 22 21 18 15 13 14 18 23 31 35 42 50 58 59 57 57 57 56 52 47 41 34 27 22 18 12 17 25 29 25 24 23 22
19 12 6 33 5 13 14 19 17 18 16 16 19 17 16 14 13 15 19 24 29 37 48 55 55 54 57 59 57 52 45 37 32 26 18 18 21 28 26 26 25 25 23 20
7 8 7 25 15 20 18 17 19 13 10 10 8 11 14 15 17 18 20 26 31 40 50 55 57 58 55 56 53 47 40 34 29 22 22 25 28 28 26 25 26 27 26 26
4 5 3 15 24 26 21 16 13 10 7 8 13 16 20 21 23 24 27 33 39 45 52 55 57 59 58 55 51 44 38 31 26 29 34 35 32 27 26 27 27 28 30 30
8 20 7 9 35 25 19 17 13 13 11 13 17 20 21 23 24 29 35 39 44 47 50 53 59 64 60 53 46 41 37 33 39 41 38 34 29 27 26 26 27 29 31 33
9 28 15 24 22 22 18 12 9 7 9 12 15 19 22 27 30 34 37 42 49 52 54 59 65 64 57 53 47 43 44 43 43 41 38 34 29 27 26 26 28 30 32 35
29 29 17 19 11 13 12 10 10 13 19 23 26 26 27 30 32 37 42 44 45 52 58 62 67 63 57 52 49 46 47 47 45 42 39 37 33 31 31 30 29 27 30 34
19 13 12 10 7 10 14 18 21 23 23 22 24 26 30 35 37 37 39 41 46 56 63 69 67 59 53 51 48 49 49 48 47 45 42 39 36 34 36 35 34 33 32 35
20 11 12 16 18 22 24 24 26 28 30 28 31 35 40 41 39 39 41 50 61 69 73 73 66 57 53 50 50 50 50 50 48 48 44 41 39 39 38 37 37 37 38 40
20 23 31 33 33 35 36 34 34 36 39 42 39 39 42 42 42 42 45 51 58 63 66 67 61 58 55 52 50 51 51 51 51 51 49 46 44 44 43 42 41 40 41 43
32 35 31 28 30 29 26 22 23 25 29 30 35 37 39 42 42 41 45 53 63 68 70 67 63 62 60 57 54 50 53 54 54 52 53 51 51 50 47 45 43 43 44 44
35 38 41 40 37 34 33 33 32 31 30 31 34 36 36 39 40 45 51 57 67 73 74 71 70 70 67 62 60 59 57 56 57 57 56 56 56 53 49 47 46 47 47 46
33 33 29 28 29 32 33 36 37 36 34 35 37 39 41 40 39 44 50 62 68 71 71 75 79 79 75 68 63 60 59 61 61 60 60 59 56 53 50 50 49 48 47 45
14 15 17 17 18 19 20 23 27 29 32 38 43 46 49 49 49 49 56 62 65 69 74 79 82 77 73 71 69 67 62 63 62 60 60 58 56 53 51 50 50 48 45 46
15 9 4 5 9 15 18 21 24 26 26 27 33 41 48 53 55 58 62 68 71 69 72 77 81 79 76 74 73 69 64 64 62 61 60 57 55 52 50 50 50 48 48 46
4 6 12 16 21 25 31 37 39 39 40 42 44 46 49 50 50 54 62 61 65 67 69 72 68 71 73 73 69 66 64 63 61 59 55 53 51 51 51 51 51 50 48 48
8 13 17 23 29 34 35 38 42 45 48 49 51 54 55 56 57 54 54 57 58 60 61 62 61 64 67 65 63 63 61 57 54 51 50 50 50 52 54 52 52 49 51 50
23 26 30 33 37 42 46 49 50 51 50 50 50 50 50 51 52 52 52 49 47 47 45 49 55 60 60 59 57 56 52 50 49 51 52 52 51 53 54 52 52 52 52 53
32 37 41 43 44 45 47 49 49 48 49 46 45 44 45 44 42 41 39 37 33 30 34 40 44 48 46 47 48 47 47 48 49 50 50 50 52 53 53 53 54 54 56 56
41 44 46 47 48 49 49 47 46 44 42 42 40 38 37 35 32 30 28 26 25 25 28 31 34 37 38 41 42 43 44 44 45 47 47 50 52 52 53 55 56 57 58 58
Wind_Direction_500mb
49 357 118 168 184 187 198 215 194 237 210 231 235 216 198 185 186 191 198 203 207 208 206 204 204 202 199 197 191 185 183 183 181 176 175 176 174 174 177 178 184 191 205 227
12 347 74 306 198 188 220 218 238 347 250 211 202 196 193 192 191 199 207 212 213 212 210 208 206 204 200 198 192 188 189 187 184 181 179 176 176 178 180 185 193 204 232 272
231 334 73 305 207 210 218 218 212 222 239 159 192 196 199 199 208 217 219 220 219 217 214 211 210 208 202 198 195 192 193 189 187 184 181 178 179 181 185 194 211 243 276 300
162 44 199 263 177 207 208 213 214 209 142 186 203 213 219 226 229 236 240 238 231 225 219 213 210 206 204 200 197 195 193 192 188 184 185 185 185 189 198 215 242 274 297 306
148 201 295 243 212 151 176 245 210 224 201 198 207 227 245 241 238 244 250 246 241 233 224 216 211 208 203 200 199 197 196 194 191 189 190 191 194 199 215 242 278 299 310 307
131 164 219 217 191 164 112 264 224 209 191 190 173 205 235 235 241 242 244 248 248 239 225 216 212 209 206 204 201 199 195 193 191 190 191 196 203 212 239 272 294 304 298 302
168 224 284 251 219 151 154 245 135 156 199 176 185 219 226 235 238 242 243 241 237 228 222 216 211 208 206 204 201 197 194 193 192 193 199 205 214 243 270 298 295 286 292 300
113 115 251 174 114 169 202 122 139 130 142 163 191 193 202 205 216 226 234 230 226 221 215 209 209 208 205 202 198 195 193 193 196 201 208 211 238 278 280 272 280 288 292 294
184 206 209 180 175 186 156 150 147 131 128 146 157 172 184 195 206 215 221 227 225 216 207 204 205 207 204 199 195 192 194 198 204 206 214 254 274 264 264 272 279 281 282 287
98 200 204 181 172 162 151 152 142 138 151 175 204 214 220 225 225 229 227 220 216 207 205 204 203 201 200 197 193 195 202 205 205 225 252 251 245 252 262 274 280 284 290 297
293 304 151 206 188 174 164 168 175 187 225 249 249 251 246 245 241 234 231 222 215 212 209 205 200 194 190 195 199 202 201 208 234 241 236 237 239 250 264 270 277 286 293 301
217 184 154 176 202 206 218 217 223 239 249 256 254 255 253 251 250 246 236 224 218 214 211 207 200 194 194 199 204 205 230 234 232 232 234 236 244 254 261 273 286 291 296 305
155 156 129 137 156 186 200 208 225 253 283 293 284 269 264 260 257 251 239 229 222 215 207 205 198 195 199 202 216 226 230 228 230 234 236 239 249 263 270 273 278 284 295 302
133 126 120 146 149 177 196 210 233 257 262 266 267 268 267 264 264 261 249 234 222 214 207 203 202 205 209 219 221 225 229 232 235 237 240 246 253 259 264 270 276 287 296 301
168 178 151 156 192 220 229 239 246 255 266 274 280 285 281 277 270 262 248 230 218 214 211 210 212 216 224 221 226 229 234 238 240 241 243 250 257 265 268 273 279 287 293 298
169 191 244 260 259 251 247 253 266 276 278 283 285 286 282 276 272 261 245 230 221 219 216 218 220 227 225 228 233 237 241 245 245 244 247 255 260 265 271 277 282 289 293 298
235 243 250 253 256 261 266 275 282 288 284 282 281 282 279 273 265 256 243 237 235 232 231 230 231 229 231 236 240 244 247 248 248 248 252 257 263 268 273 278 282 287 292 297
252 257 257 257 268 272 270 277 284 291 294 285 278 276 270 268 269 266 256 244 239 237 234 232 231 233 237 240 244 251 252 252 251 251 253 257 262 266 271 276 280 284 288 292
243 248 254 262 271 281 287 292 295 299 296 288 281 277 274 273 272 270 265 257 251 247 245 240 239 239 240 242 247 250 252 252 253 253 253 256 260 264 269 274 276 280 284 287
236 246 256 270 281 287 292 294 294 294 290 287 286 283 282 280 276 270 265 261 261 260 257 249 247 247 247 247 247 248 249 252 252 252 253 256 259 263 266 268 271 276 281 284
225 244 262 274 281 288 290 289 287 285 283 280 278 274 271 267 263 261 261 263 267 263 259 254 252 251 249 248 249 249 248 249 250 251 253 254 257 260 263 267 272 276 277 279
121 110 63 342 319 309 307 303 301 301 300 297 292 287 282 278 275 269 262 262 262 260 256 256 254 253 250 247 247 246 246 247 247 249 251 254 257 260 264 268 271 271 273 276
203 272 289 294 297 298 296 292 288 288 292 292 291 289 288 283 275 273 273 270 267 265 261 258 254 250 247 247 247 247 247 247 248 250 252 255 258 261 264 266 267 270 271 273
282 296 301 303 305 305 302 293 290 290 290 290 290 289 289 287 283 279 273 270 268 266 264 255 249 244 242 243 243 244 245 248 250 251 252 254 258 262 264 266 268 270 273 275
291 293 294 297 299 299 298 299 299 298 295 294 292 290 289 288 287 285 279 271 265 264 258 249 245 244 243 243 244 245 246 248 249 250 253 257 261 263 267 270 272 274 273 274
284 287 289 290 292 293 292 292 292 293 294 295 294 294 293 292 289 286 282 276 268 257 249 245 242 245 244 245 246 247 248 249 250 252 256 260 264 266 268 271 273 274 276 278
291 288 288 289 290 290 291 292 292 291 292 293 295 294 292 291 290 286 280 270 260 254 249 246 245 246 247 246 245 246 248 251 255 259 263 266 268 271 272 274 274 275 277 280
Wind_Speed_850mb
5 5 5 11 26 30 21 34 18 26 20 17 14 14 20 29 40 47 49 48 48 48 46 44 43 40 38 37 37 34 33 34 36 35 35 34 32 29 26 22 17 14 11 11
6 10 1 1 13 26 44 22 34 7 14 11 18 19 26 36 44 49 51 51 52 52 52 51 49 47 45 42 40 38 39 38 38 37 38 34 31 28 23 20 17 12 9 10
11 4 5 11 25 29 22 30 20 26 36 11 7 17 37 42 49 52 51 50 55 57 56 54 52 50 48 45 44 43 42 41 40 39 36 33 30 27 22 16 10 9 11 15
6 4 8 16 9 33 35 18 34 5 8 27 26 38 37 43 46 48 50 52 55 57 58 57 54 51 48 48 48 48 46 43 42 39 35 32 28 22 16 13 10 11 15 20
11 8 10 8 10 15 17 30 21 36 16 25 24 23 39 47 46 48 49 54 56 56 60 60 58 55 54 53 52 50 47 46 43 39 34 29 23 17 13 11 11 14 19 25
6 12 20 3 9 16 14 23 14 33 22 28 27 10 15 28 38 35 46 47 45 50 57 61 60 58 58 58 55 53 50 47 43 38 31 24 19 14 11 12 16 23 29 29
7 8 15 14 5 12 16 11 7 5 17 34 12 21 12 21 27 30 33 36 40 43 52 62 60 59 58 56 55 52 50 45 39 33 26 21 16 13 12 18 27 28 27 27
5 3 25 19 11 19 8 10 15 18 14 22 21 18 15 13 14 18 23 31 35 42 50 58 59 57 57 57 56 52 47 41 34 27 22 18 12 17 25 29 25 24 23 22
19 12 6 33 5 13 14 19 17 18 16 16 19 17 16 14 13 15 19 24 29 37 48 55 55 54 57 59 57 52 45 37 32 26 18 18 21 28 26 26 25 25 23 20
7 8 7 25 15 20 18 17 19 13 10 10 8 11 14 15 17 18 20 26 31 40 50 55 57 58 55 56 53 47 40 34 29 22 22 25 28 28 26 25 26 27 26 26
4 5 3 15 24 26 21 16 13 10 7 8 13 16 20 21 23 24 27 33 39 45 52 55 57 59 58 55 51 44 38 31 26 29 34 35 32 27 26 27 27 28 30 30
8 20 7 9 35 25 19 17 13 13 11 13 17 20 21 23 24 29 35 39 44 47 50 53 59 64 60 53 46 41 37 33 39 41 38 34 29 27 26 26 27 29 31 33
9 28 15 24 22 22 18 12 9 7 9 12 15 19 22 27 30 34 37 42 49 52 54 59 65 64 57 53 47 43 44 43 43 41 38 34 29 27 26 26 28 30 32 35
29 29 17 19 11 13 12 10 10 13 19 23 26 26 27 30 32 37 42 44 45 52 58 62 67 63 57 52 49 46 47 47 45 42 39 37 33 31 31 30 29 27 30 34
19 13 12 10 7 10 14 18 21 23 23 22 24 26 30 35 37 37 39 41 46 56 63 69 67 59 53 51 48 49 49 48 47 45 42 39 36 34 36 35 34 33 32 35
20 11 12 16 18 22 24 24 26 28 30 28 31 35 40 41 39 39 41 50 61 69 73 73 66 57 53 50 50 50 50 50 48 48 44 41 39 39 38 37 37 37 38 40
20 23 31 33 33 35 36 34 34 36 39 42 39 39 42 42 42 42 45 51 58 63 66 67 61 58 55 52 50 51 51 51 51 51 49 46 44 44 43 42 41 40 41 43
32 35 31 28 30 29 26 22 23 25 29 30 35 37 39 42 42 41 45 53 63 68 70 67 63 62 60 57 54 50 53 54 54 52 53 51 51 50 47 45 43 43 44 44
35 38 41 40 37 34 33 33 32 31 30 31 34 36 36 39 40 45 51 57 67 73 74 71 70 70 67 62 60 59 57 56 57 57 56 56 56 53 49 47 46 47 47 46
33 33 29 28 29 32 33 36 37 36 34 35 37 39 41 40 39 44 50 62 68 71 71 75 79 79 75 68 63 60 59 61 61 60 60 59 56 53 50 50 49 48 47 45
14 15 17 17 18 19 20 23 27 29 32 38 43 46 49 49 49 49 56 62 65 69 74 79 82 77 73 71 69 67 62 63 62 60 60 58 56 53 51 50 50 48 45 46
15 9 4 5 9 15 18 21 24 26 26 27 33 41 48 53 55 58 62 68 71 69 72 77 81 79 76 74 73 69 64 64 62 61 60 57 55 52 50 50 50 48 48 46
4 6 12 16 21 25 31 37 39 39 40 42 44 46 49 50 50 54 62 61 65 67 69 72 68 71 73 73 69 66 64 63 61 59 55 53 51 51 51 51 51 50 48 48
8 13 17 23 29 34 35 38 42 45 48 49 51 54 55 56 57 54 54 57 58 60 61 62 61 64 67 65 63 63 61 57 54 51 50 50 50 52 54 52 52 49 51 50
23 26 30 33 37 42 46 49 50 51 50 50 50 50 50 51 52 52 52 49 47 47 45 49 55 60 60 59 57 56 52 50 49 51 52 52 51 53 54 52 52 52 52 53
32 37 41 43 44 45 47 49 49 48 49 46 45 44 45 44 42 41 39 37 33 30 34 40 44 48 46 47 48 47 47 48 49 50 50 50 52 53 53 53 54 54 56 56
41 44 46 47 48 49 49 47 46 44 42 42 40 38 37 35 32 30 28 26 25 25 28 31 34 37 38 41 42 43 44 44 45 47 47 50 52 52 53 55 56 57 58 58
Wind_Direction_850mb
49 357 118 168 184 187 198 215 194 237 210 231 235 216 198 185 186 191 198 203 207 208 206 204 204 202 199 197 191 185 183 183 181 176 175 176 174 174 177 178 184 191 205 227
12 347 74 306 198 188 220 218 238 347 250 211 202 196 193 192 191 199 207 212 213 212 210 208 206 204 200 198 192 188 189 187 184 181 179 176 176 178 180 185 193 204 232 272
231 334 73 305 207 210 218 218 212 222 239 159 192 196 199 199 208 217 219 220 219 217 214 211 210 208 202 198 195 192 193 189 187 184 181 178 179 181 185 194 211 243 276 300
162 44 199 263 177 207 208 213 214 209 142 186 203 213 219 226 229 236 240 238 231 225 219 213 210 206 204 200 197 195 193 192 188 184 185 185 185 189 198 215 242 274 297 306
148 201 295 243 212 151 176 245 210 224 201 198 207 227 245 241 238 244 250 246 241 233 224 216 211 208 203 200 199 197 196 194 191 189 190 191 194 199 215 242 278 299 310 307
131 164 219 217 191 164 112 264 224 209 191 190 173 205 235 235 241 242 244 248 248 239 225 216 212 209 206 204 201 199 195 193 191 190 191 196 203 212 239 272 294 304 298 302
168 224 284 251 219 151 154 245 135 156 199 176 185 219 226 235 238 242 243 241 237 228 222 216 211 208 206 204 201 197 194 193 192 193 199 205 214 243 270 298 295 286 292 300
113 115 251 174 114 169 202 122 139 130 142 163 191 193 202 205 216 226 234 230 226 221 215 209 209 208 205 202 198 195 193 193 196 201 208 211 238 278 280 272 280 288 292 294
184 206 209 180 175 186 156 150 147 131 128 146 157 172 184 195 206 215 221 227 225 216 207 204 205 207 204 199 195 192 194 198 204 206 214 254 274 264 264 272 279 281 282 287
98 200 204 181 172 162 151 152 142 138 151 175 204 214 220 225 225 229 227 220 216 207 205 204 203 201 200 197 193 195 202 205 205 225 252 251 245 252 262 274 280 284 290 297
293 304 151 206 188 174 164 168 175 187 225 249 249 251 246 245 241 234 231 222 215 212 209 205 200 194 190 195 199 202 201 208 234 241 236 237 239 250 264 270 277 286 293 301
217 184 154 176 202 206 218 217 223 239 249 256 254 255 253 251 250 246 236 224 218 214 211 207 200 194 194 199 204 205 230 234 232 232 234 236 244 254 261 273 286 291 296 305
155 156 129 137 156 186 200 208 225 253 283 293 284 269 264 260 257 251 239 229 222 215 207 205 198 195 199 202 216 226 230 228 230 234 236 239 249 263 270 273 278 284 295 302
133 126 120 146 149 177 196 210 233 257 262 266 267 268 267 264 264 261 249 234 222 214 207 203 202 205 209 219 221 225 229 232 235 237 240 246 253 259 264 270 276 287 296 301
168 178 151 156 192 220 229 239 246 255 266 274 280 285 281 277 270 262 248 230 218 214 211 210 212 216 224 221 226 229 234 238 240 241 243 250 257 265 268 273 279 287 293 298
169 191 244 260 259 251 247 253 266 276 278 283 285 286 282 276 272 261 245 230 221 219 216 218 220 227 225 228 233 237 241 245 245 244 247 255 260 265 271 277 282 289 293 298
235 243 250 253 256 261 266 275 282 288 284 282 281 282 279 273 265 256 243 237 235 232 231 230 231 229 231 236 240 244 247 248 248 248 252 257 263 268 273 278 282 287 292 297
252 257 257 257 268 272 270 277 284 291 294 285 278 276 270 268 269 266 256 244 239 237 234 232 231 233 237 240 244 251 252 252 251 251 253 257 262 266 271 276 280 284 288 292
243 248 254 262 271 281 287 292 295 299 296 288 281 277 274 273 272 270 265 257 251 247 245 240 239 239 240 242 247 250 252 252 253 253 253 256 260 264 269 274 276 280 284 287
236 246 256 270 281 287 292 294 294 294 290 287 286 283 282 280 276 270 265 261 261 260 257 249 247 247 247 247 247 248 249 252 252 252 253 256 259 263 266 268 271 276 281 284
225 244 262 274 281 288 290 289 287 285 283 280 278 274 271 267 263 261 261 263 267 263 259 254 252 251 249 248 249 249 248 249 250 251 253 254 257 260 263 267 272 276 277 279
121 110 63 342 319 309 307 303 301 301 300 297 292 287 282 278 275 269 262 262 262 260 256 256 254 253 250 247 247 246 246 247 247 249 251 254 257 260 264 268 271 271 273 276
203 272 289 294 297 298 296 292 288 288 292 292 291 289 288 283 275 273 273 270 267 265 261 258 254 250 247 247 247 247 247 247 248 250 252 255 258 261 264 266 267 270 271 273
282 296 301 303 305 305 302 293 290 290 290 290 290 289 289 287 283 279 273 270 268 266 264 255 249 244 242 243 243 244 245 248 250 251 252 254 258 262 264 266 268 270 273 275
291 293 294 297 299 299 298 299 299 298 295 294 292 290 289 288 287 285 279 271 265 264 258 249 245 244 243 243 244 245 246 248 249 250 253 257 261 263 267 270 272 274 273 274
284 287 289 290 292 293 292 292 292 293 294 295 294 294 293 292 289 286 282 276 268 257 249 245 242 245 244 245 246 247 248 249 250 252 256 260 264 266 268 271 273 274 276 278
291 288 288 289 290 290 291 292 292 291 292 293 295 294 292 291 290 286 280 270 260 254 249 246 245 246 247 246 245 246 248 251 255 259 263 266 268 271 272 274 274 275 277 280